Toledo Metcalf, OH

6:05 AM EST on January 20, 2018 (GMT -0500)
Metcalf

Weather History for KTDZ - January, 2014

Change the Weather History Date:

Friday, January 17, 2014

  Actual Average (KTOL) Record (KTOL)
Temperature  
Mean Temperature 21 °F -  
Max Temperature 30 °F 30 °F 64 °F (1952)
Min Temperature 12 °F 16 °F -17 °F (1982)
Degree Days  
Heating Degree Days 44    
Moisture  
Dew Point 18 °F    
Average Humidity 77    
Maximum Humidity 86    
Minimum Humidity 65    
Precipitation  
Precipitation 0.00 in - - ()
Sea Level Pressure  
Sea Level Pressure 29.83 in    
Wind  
Wind Speed 11 mph (WSW)    
Max Wind Speed 21 mph    
Max Gust Speed 29 mph    
Visibility 5 miles    
Events Snow    
Averages and records for this station are not official NWS values.
T = Trace of Precipitation, MM = Missing Value Source: NWS Daily Summary

Daily Weather History Graph

Daily Weather History Graph

Search for Another Location

Airport or City:

Trip Planner

Search our weather history database for the weather conditions in past years. The results will help you decide how hot, cold, wet, or windy it might be!

Date:

Astronomy

Jan. 17, 2014 Rise Set
Actual Time 7:57 AM EST 5:31 PM EST
Civil Twilight 7:26 AM EST 6:01 PM EST
Nautical Twilight 6:52 AM EST 6:35 PM EST
Astronomical Twilight 6:19 AM EST 7:08 PM EST
Moon 7:18 PM EST (1/17) 8:22 AM EST (1/17)
Length of Visible Light 10h 34m
Length of Day
9h 34m
Full, 98% of the Moon is Illuminated
Jan 17
Full
Jan 24
Last Quarter
Jan 30
New
Feb 6
First Quarter
Feb 14
Full

Hourly Weather History & Observations

Time (EST) Temp. Windchill Dew Point Humidity Pressure Visibility Wind Dir Wind Speed Gust Speed Precip Events Conditions
12:00 AM 30.2 °F 19.3 °F 24.8 °F 80% 29.67 in 2.0 mi SSW 15.0 mph 23.0 mph 0.00 in Snow Light Snow
12:10 AM 30.2 °F 19.3 °F 26.6 °F 86% 29.67 in 3.0 mi SSW 15.0 mph - 0.00 in Snow Light Snow
12:53 AM 30.0 °F 19.1 °F 25.0 °F 82% 29.68 in 10.0 mi SSW 15.0 mph - 0.00 in   Mostly Cloudy
1:53 AM 30.9 °F 21.2 °F 25.0 °F 79% 29.69 in 10.0 mi SSW 12.7 mph 20.7 mph N/A   Overcast
2:53 AM 28.0 °F 15.7 °F 19.9 °F 72% 29.72 in 10.0 mi SW 17.3 mph 24.2 mph N/A   Overcast
3:18 AM 26.6 °F 15.2 °F 17.6 °F 69% 29.70 in 10.0 mi SW 13.8 mph - N/A   Mostly Cloudy
3:53 AM 25.0 °F 13.1 °F 16.0 °F 69% 29.74 in 10.0 mi SW 13.8 mph - N/A   Clear
4:53 AM 24.1 °F 13.7 °F 14.0 °F 65% 29.75 in 10.0 mi SW 10.4 mph - N/A   Partly Cloudy
5:53 AM 19.9 °F 12.1 °F 12.0 °F 71% 29.78 in 10.0 mi SW 5.8 mph - N/A   Clear
6:53 AM 18.0 °F 9.8 °F 10.9 °F 74% 29.78 in 10.0 mi SW 5.8 mph - N/A   Partly Cloudy
7:28 AM 21.2 °F 13.6 °F 12.2 °F 68% 29.77 in 10.0 mi WSW 5.8 mph - N/A   Overcast
8:53 AM 24.1 °F - 16.0 °F 71% 29.80 in 2.5 mi Calm Calm - 0.00 in Snow Light Snow
8:57 AM 24.8 °F - 17.6 °F 74% 29.77 in 1.5 mi Calm Calm - 0.00 in Snow Light Snow
9:18 AM 24.8 °F 20.5 °F 17.6 °F 74% 29.79 in 3.0 mi WSW 3.5 mph - 0.00 in Snow Light Snow
9:34 AM 24.8 °F - 19.4 °F 80% 29.79 in 2.0 mi Calm Calm - 0.00 in Snow Light Snow
9:43 AM 24.8 °F - 19.4 °F 80% 29.79 in 6.0 mi Calm Calm - 0.00 in Snow Light Snow
9:53 AM 24.1 °F - 19.9 °F 84% 29.82 in 10.0 mi Calm Calm - 0.00 in   Overcast
10:14 AM 24.8 °F - 19.4 °F 80% 29.80 in 10.0 mi Calm Calm - N/A   Overcast
10:53 AM 27.0 °F - 19.9 °F 75% 29.82 in 10.0 mi Calm Calm - N/A   Overcast
11:53 AM 28.0 °F - 21.0 °F 75% 29.81 in 10.0 mi Calm Calm - N/A   Overcast
12:14 PM 28.4 °F - 21.2 °F 74% 29.78 in 5.0 mi Calm Calm - 0.00 in Snow Light Snow
12:53 PM 28.9 °F 25.2 °F 21.9 °F 75% 29.80 in 9.0 mi NW 3.5 mph - 0.00 in   Overcast
1:25 PM 30.2 °F - 21.2 °F 69% 29.77 in 10.0 mi Calm Calm - N/A   Overcast
1:37 PM 30.2 °F - 23.0 °F 75% 29.76 in 2.5 mi Calm Calm - 0.00 in Snow Light Snow
1:53 PM 30.0 °F 25.2 °F 23.0 °F 75% 29.78 in 2.5 mi WNW 4.6 mph - 0.00 in Snow Light Snow
2:30 PM 30.2 °F 21.9 °F 23.0 °F 75% 29.77 in 3.0 mi West 9.2 mph - 0.00 in Snow Light Snow
2:53 PM 28.9 °F 19.2 °F 23.0 °F 78% 29.80 in 5.0 mi West 11.5 mph - 0.00 in Snow Light Snow
3:10 PM 28.4 °F 18.5 °F 21.2 °F 74% 29.79 in 5.0 mi West 11.5 mph - 0.00 in Snow Light Snow
3:20 PM 28.4 °F 18.5 °F 21.2 °F 74% 29.79 in 1.8 mi West 11.5 mph - 0.00 in Snow Light Snow
3:35 PM 28.4 °F 19.7 °F 23.0 °F 80% 29.80 in 1.8 mi West 9.2 mph - 0.00 in Snow Light Snow
3:49 PM 28.4 °F 19.1 °F 21.2 °F 74% 29.80 in 2.5 mi WSW 10.4 mph - 0.00 in Snow Light Snow
3:53 PM 28.0 °F 17.0 °F 21.9 °F 78% 29.83 in 3.0 mi West 13.8 mph - 0.00 in Snow Light Snow
4:18 PM 26.6 °F 15.7 °F 21.2 °F 80% 29.82 in 5.0 mi West 12.7 mph - 0.00 in Snow Light Snow
4:53 PM 26.1 °F 15.0 °F 21.0 °F 81% 29.87 in 3.0 mi WSW 12.7 mph - 0.00 in Snow Light Snow
4:59 PM 26.6 °F 14.7 °F 19.4 °F 74% 29.84 in 2.0 mi WSW 15.0 mph - 0.00 in Snow Light Snow
5:01 PM 26.6 °F 14.3 °F 19.4 °F 74% 29.84 in 1.8 mi WSW 16.1 mph - 0.00 in Snow Light Snow
5:08 PM 24.8 °F 12.4 °F 19.4 °F 80% 29.85 in 1.5 mi WSW 15.0 mph - 0.00 in Snow Light Snow
5:18 PM 24.8 °F 12.4 °F 19.4 °F 80% 29.85 in 2.5 mi WSW 15.0 mph 21.9 mph 0.00 in Snow Light Snow
5:26 PM 24.8 °F 11.9 °F 19.4 °F 80% 29.86 in 3.0 mi WSW 16.1 mph - 0.00 in Snow Light Snow
5:49 PM 24.8 °F 12.9 °F 19.4 °F 80% 29.87 in 2.0 mi WSW 13.8 mph - 0.00 in Snow Light Snow
5:53 PM 24.1 °F 12.5 °F 19.0 °F 81% 29.90 in 2.5 mi WSW 12.7 mph 20.7 mph 0.00 in Snow Light Snow
5:59 PM 21.2 °F 8.3 °F 17.6 °F 86% 29.88 in 3.0 mi SW 13.8 mph - 0.00 in Snow Light Snow
6:40 PM 19.4 °F 4.5 °F 15.8 °F 86% 29.90 in 2.0 mi WSW 17.3 mph - 0.00 in Snow Light Snow
6:42 PM 19.4 °F 5.0 °F 15.8 °F 86% 29.90 in 1.8 mi WSW 16.1 mph 24.2 mph 0.00 in Snow Light Snow
6:53 PM 19.0 °F 4.0 °F 14.0 °F 81% 29.94 in 1.8 mi SW 17.3 mph 25.3 mph 0.00 in Snow Light Snow
7:18 PM 17.6 °F 2.2 °F 12.2 °F 79% 29.93 in 2.5 mi SW 17.3 mph 24.2 mph 0.00 in Snow Light Snow
7:30 PM 17.6 °F 1.7 °F 12.2 °F 79% 29.93 in 3.0 mi SW 18.4 mph 25.3 mph 0.00 in Snow Light Snow
7:53 PM 16.0 °F -1.3 °F 10.0 °F 77% 29.96 in 2.5 mi SW 20.7 mph 28.8 mph 0.00 in Snow Light Snow
8:46 PM 15.8 °F 0.3 °F 10.4 °F 79% 29.95 in 2.5 mi WSW 16.1 mph - 0.00 in Snow Light Snow
8:53 PM 15.1 °F -1.1 °F 10.0 °F 80% 29.98 in 2.0 mi WSW 17.3 mph - 0.00 in Snow Light Snow
9:03 PM 15.8 °F 0.3 °F 8.6 °F 73% 29.95 in 2.0 mi SW 16.1 mph - 0.00 in Snow Light Snow
9:30 PM 14.0 °F -2.5 °F 8.6 °F 79% 29.95 in 3.0 mi SW 17.3 mph 21.9 mph 0.00 in Snow Light Snow
9:53 PM 14.0 °F -1.4 °F 9.0 °F 80% 29.99 in 4.0 mi SW 15.0 mph - 0.00 in Snow Light Snow
10:19 PM 14.0 °F -0.8 °F 8.6 °F 79% 29.96 in 5.0 mi SW 13.8 mph - 0.00 in Snow Light Snow
10:53 PM 12.9 °F -2.8 °F 8.1 °F 81% 30.00 in 5.0 mi SW 15.0 mph - 0.00 in Snow Light Snow
11:53 PM 12.0 °F -3.4 °F 6.1 °F 77% 29.99 in 6.0 mi SW 13.8 mph - 0.00 in Snow Light Snow